Location: LDNL
(36.4545°S, 141.6685°E)
Time: 12:32:15
(UTC+10:00)

Tiros 1 despin weight - Pass Details

Date: 13 August 2022
Orbit: 590 x 639 km, 48.2° (Epoch: 23 September)

Event Time Altitude Azimuth Distance (km) Brightness Sun altitude
Rises 01:23:54 0° 274° (W) 2,910 - -66.1°
Reaches altitude 10° 01:26:26 10° 263° (W) 2,015 - -65.9°
Maximum altitude 01:30:33 30° 201° (SSW) 1,147 - -65.5°
Drops below altitude 10° 01:34:43 10° 139° (SE) 2,046 - -65.0°
Sets 01:37:19 0° 128° (SE) 2,962 - -64.7°
